Monticello, NY

12:04 AM EST on December 14, 2019 (GMT -0500)
Sullivan County International

Weather History for KMSV - November, 2019

Change the Weather History Date:

Wednesday, November 13, 2019

  Actual Average Record
Temperature  
Mean Temperature 20 °F -  
Max Temperature 25 °F 43 °F 62 °F (2010)
Min Temperature 14 °F 28 °F 14 °F (2019)
Degree Days  
Heating Degree Days 46    
Moisture  
Dew Point 8 °F    
Average Humidity 67    
Maximum Humidity 84    
Minimum Humidity 46    
Precipitation  
Precipitation 0.00 in - - ()
Sea Level Pressure  
Sea Level Pressure 30.29 in    
Wind  
Wind Speed 10 mph (WNW)    
Max Wind Speed 17 mph    
Max Gust Speed 25 mph    
Visibility 9 miles    
Events Snow    
Averages and records for this station are not official NWS values.
T = Trace of Precipitation, MM = Missing Value Source: NWS Daily Summary

Daily Weather History Graph

Daily Weather History Graph

Search for Another Location

Airport or City:

Astronomy

Nov. 13, 2019 Rise Set
Actual Time 6:45 AM EST 4:40 PM EST
Civil Twilight 6:15 AM EST 5:10 PM EST
Nautical Twilight 5:42 AM EST 5:43 PM EST
Astronomical Twilight 5:09 AM EST 6:16 PM EST
Moon 5:42 PM EST (11/13) 7:36 AM EST (11/13)
Length of Visible Light 10h 54m
Length of Day
9h 55m
Full, 99% of the Moon is Illuminated
Nov 13
Full
Nov 19
Last Quarter
Nov 26
New
Dec 4
First Quarter
Dec 12
Full

Hourly Weather History & Observations

Time (EST) Temp. Windchill Dew Point Humidity Pressure Visibility Wind Dir Wind Speed Gust Speed Precip Events Conditions
12:56 AM 15.1 °F 1.1 °F 7.0 °F 70% 30.16 in 9.0 mi WNW 12.7 mph 20.7 mph 0.00 in Snow Light Snow
1:14 AM 15.8 °F 3.4 °F 6.8 °F 68% 30.09 in 9.0 mi WNW 10.4 mph 19.6 mph 0.00 in Snow Light Snow
1:56 AM 15.1 °F -0.1 °F 8.1 °F 74% 30.16 in 9.0 mi WNW 15.0 mph - 0.00 in Snow Light Snow
2:56 AM 15.1 °F 2.5 °F 8.1 °F 74% 30.17 in 9.0 mi West 10.4 mph 25.3 mph 0.00 in Snow Light Snow
3:24 AM 14.0 °F -0.2 °F 8.6 °F 79% 30.11 in 9.0 mi West 12.7 mph 18.4 mph 0.00 in Snow Light Snow
3:48 AM 14.0 °F -0.2 °F 8.6 °F 79% 30.12 in 9.0 mi West 12.7 mph - 0.00 in Snow Light Snow
3:56 AM 14.0 °F 1.2 °F 8.1 °F 77% 30.19 in 9.0 mi WNW 10.4 mph - 0.00 in Snow Light Snow
4:45 AM 14.0 °F 2.0 °F 8.6 °F 79% 30.13 in 8.0 mi West 9.2 mph 17.3 mph 0.00 in Snow Light Snow
4:56 AM 15.1 °F 2.5 °F 9.0 °F 77% 30.21 in 8.0 mi West 10.4 mph 18.4 mph 0.00 in Snow Light Snow
5:56 AM 14.0 °F 1.2 °F 9.0 °F 80% 30.23 in 7.0 mi West 10.4 mph - 0.00 in Snow Light Snow
6:56 AM 14.0 °F 2.9 °F 10.0 °F 84% 30.27 in 5.0 mi WNW 8.1 mph - 0.00 in Snow Light Snow
7:56 AM 16.0 °F 6.3 °F 10.9 °F 81% 30.29 in 9.0 mi WNW 6.9 mph - 0.00 in Snow Light Snow
8:29 AM 19.4 °F 6.6 °F 10.4 °F 68% 30.23 in 9.0 mi NW 12.7 mph 19.6 mph 0.00 in   Scattered Clouds
8:56 AM 21.0 °F 9.9 °F 10.0 °F 63% 30.31 in 10.0 mi NW 10.4 mph - 0.00 in   Mostly Cloudy
9:32 AM 21.2 °F 6.8 °F 6.8 °F 54% 30.26 in 9.0 mi WNW 17.3 mph 25.3 mph 0.00 in   Scattered Clouds
9:56 AM 21.9 °F 8.2 °F 7.0 °F 53% 30.33 in 10.0 mi WNW 16.1 mph 21.9 mph 0.00 in   Clear
10:56 AM 23.0 °F 10.6 °F 6.1 °F 48% 30.34 in 10.0 mi WNW 13.8 mph 24.2 mph N/A   Clear
11:56 AM 25.0 °F 13.6 °F 7.0 °F 46% 30.35 in 10.0 mi NW 12.7 mph 20.7 mph N/A   Clear
12:56 PM 24.1 °F 12.0 °F 7.0 °F 48% 30.34 in 10.0 mi WNW 13.8 mph 18.4 mph N/A   Clear
1:56 PM 25.0 °F 14.8 °F 7.0 °F 46% 30.35 in 10.0 mi NW 10.4 mph - N/A   Clear
2:56 PM 25.0 °F 16.3 °F 7.0 °F 46% 30.36 in 10.0 mi WNW 8.1 mph - N/A   Clear
3:56 PM 21.9 °F 11.7 °F 7.0 °F 53% 30.37 in 10.0 mi NW 9.2 mph - N/A   Clear
4:56 PM 21.0 °F 14.6 °F 7.0 °F 55% 30.39 in 10.0 mi WNW 4.6 mph - N/A   Clear
5:56 PM 19.0 °F 12.3 °F 7.0 °F 59% 30.42 in 10.0 mi WNW 4.6 mph - N/A   Clear
6:56 PM 17.1 °F - 7.0 °F 65% 30.42 in 10.0 mi Calm Calm - N/A   Clear
7:56 PM 16.0 °F - 7.0 °F 68% 30.42 in 10.0 mi Calm Calm - N/A   Clear
8:56 PM 15.1 °F 9.4 °F 7.0 °F 70% 30.43 in 10.0 mi West 3.5 mph - N/A   Clear
9:56 PM 15.1 °F 9.4 °F 9.0 °F 77% 30.43 in 10.0 mi NNE 3.5 mph - N/A   Clear
10:56 PM 15.1 °F 9.4 °F 9.0 °F 77% 30.42 in 10.0 mi ENE 3.5 mph - N/A   Clear
11:56 PM 15.1 °F - 10.0 °F 80% 30.43 in 10.0 mi Calm Calm - N/A   Clear